Regional Weather Roundup
Issued by NWS Midland/Odessa, TX

Skip options and go directly to product.
Home | Oldest Version | Previous Version | Current Version | All | Graphics & Text | Save Text | Print | Product List | Glossary On

Skip product version selection by date and time.   
622
ASUS44 KMAF 171310
RWRMAF
MIDLAND AREA WEATHER ROUNDUP
NATIONAL WEATHER SERVICE MIDLAND TX
800 AM CDT WED SEP 17 2014

...IN SOUTHWEST TEXAS AND SOUTHEAST NEW MEXICO...

CITY           SKY/WX    TMP DP  RH WIND       PRES   REMARKS
ALPINE         MOCLDY    64  60  87 SW5       30.18R
ANDREWS        FAIR      67  66  99 CALM      30.08R FOG
ARTESIA        NOT AVBL
BIG SPRING     CLOUDY    74  70  87 E5        30.07R
CARLSBAD       MOCLDY    66  32  28 NW3       30.06S HAZE
DRYDEN           N/A     76  71  85 E6        30.01R
FORT STOCKTON  MOCLDY    67  65  93 S8        30.05R
GUAD PASS      PTCLDY    62  59  90 NE15      30.18S
HOBBS          MOCLDY    64  64 100 CALM      30.10S FOG
MARFA          CLOUDY    59  57  94 CALM      30.17R
MIDLAND AIRPK  NOT AVBL
MIDLAND INTL   MOCLDY    69  66  90 CALM      30.05R
ODESSA         MOCLDY    68  66  93 E3        30.07R
PECOS          MOCLDY    67  64  90 E5        30.03R
PRESIDIO       FAIR      72  63  72 N7        30.02S
SEMINOLE       CLOUDY    66  65  97 CALM      30.09S
SNYDER         MOCLDY    70  69  95 CALM      30.05S
WINK           CLOUDY    70  66  87 E3        30.03S
$$
...OTHER STATIONS IN TEXAS...

CITY           SKY/WX    TMP DP  RH WIND       PRES   REMARKS
ABILENE        LGT RAIN  74  69  85 CALM      30.02R
AMARILLO       MOCLDY    60  59  96 S7        30.08R FOG
AUSTIN         CLOUDY    77  74  90 CALM      29.97R
BROWNSVILLE    CLEAR     77  75  93 CALM      29.93S
CORPUS CHRISTI MOCLDY    77  75  93 S5        29.94R
DALLAS FTW     MOCLDY    76  71  85 S6        29.97R
DEL RIO        CLOUDY    77  74  90 E5        29.95R
EL PASO        LGT RAIN  68  64  87 N8        30.07R
HOUSTON INT    PTSUNNY   77  75  93 NE3       29.96R
LUBBOCK        CLOUDY    66  64  93 E5        30.08S
SAN ANGELO     PTCLDY    71  67  87 CALM      30.02R
SAN ANTONIO    DRIZZLE   78  76  93 E6        29.97R FOG
WACO           CLOUDY    74  72  93 S3        29.99R
WICHITA FALLS  NOT AVBL
$$
...OTHER LOCATIONS IN NEW MEXICO...

CITY           SKY/WX    TMP DP  RH WIND       PRES   REMARKS
ALAMAGORDO     CLOUDY    64  64 100 NE9       30.12R
ALBUQUERQUE    LGT RAIN  62  57  83 CALM      30.18R
CANNON AFB     MOCLDY    64  61  88 W6        30.13R
CLOVIS           N/A     63  61  94 SW6       30.14S
HOLLOMAN AFB   MOCLDY    64  64 100 NE5       30.10R
ROSWELL        CLOUDY    66  65  96 CALM      30.09R FOG
RUIDOSO        LGT RAIN  57  57 100 W8        30.27R
SANTA FE       CLOUDY    55  50  83 CALM      30.22R
TRUTH OR CONSE CLOUDY    62  61  96 CALM      30.12F
TUCUMCARI      CLOUDY    64  60  87 SW8       30.08R
$$

USA.gov is the U.S. government's official web portal to all federal, state and local government web resources and services.